Theta_e
313 314 319 322 322 320 326 326 321 321 321 322 322 344 346 344 346 346 339 341 339 333 333 335 335 338 337 334 332 331 330 329 330 330 329 327 326 325 324 324 323 323 325 328 327 329 330 331 331
314 318 321 315 321 320 320 321 320 322 324 325 324 339 349 347 340 342 340 340 339 331 332 332 332 335 338 336 333 333 331 330 330 331 330 329 328 326 325 324 324 323 324 328 330 330 331 332 332
317 320 314 318 317 321 322 319 320 323 323 328 330 335 348 352 346 343 341 340 335 331 331 331 331 333 337 337 335 333 332 331 330 331 331 329 329 327 326 326 326 325 324 325 328 331 330 331 334
320 314 312 316 320 319 320 319 321 322 323 324 330 347 348 345 347 343 342 341 334 332 332 331 332 333 337 338 337 334 334 332 331 332 332 330 329 328 327 326 326 326 325 324 324 324 324 326 329
319 309 314 318 319 319 318 320 320 323 323 326 328 351 349 345 345 341 342 340 334 333 332 331 333 334 337 339 338 334 335 333 332 332 332 331 330 329 329 328 327 327 326 326 325 325 324 324 323
314 310 315 316 317 316 316 321 322 322 323 325 326 349 348 344 342 341 342 340 336 333 332 332 334 335 338 339 339 336 336 335 333 333 333 332 331 330 330 329 329 329 328 327 327 326 326 326 326
315 312 315 316 316 316 321 322 322 321 322 322 323 346 345 343 343 340 343 342 340 337 333 333 334 336 339 341 340 337 337 337 335 334 334 333 331 331 330 330 330 330 330 329 328 328 328 329 330
312 313 316 315 315 316 320 320 320 320 321 322 322 350 348 342 344 341 344 343 342 341 335 332 333 337 340 342 341 339 337 338 337 335 335 334 332 330 330 331 331 332 330 330 329 329 330 331 331
314 313 312 315 316 316 317 317 318 319 321 321 322 327 338 344 342 341 345 342 341 340 337 334 332 335 339 341 341 339 339 340 338 337 336 335 333 331 331 331 333 335 335 335 331 331 331 331 332
314 311 313 314 316 317 317 316 317 318 318 321 321 330 343 342 340 338 343 346 343 341 340 340 335 332 335 340 341 341 341 342 340 339 338 336 333 330 330 332 333 334 336 338 334 331 331 332 332
315 315 314 316 316 315 316 316 317 318 318 320 321 319 340 339 338 338 339 346 346 344 341 341 339 335 332 336 341 343 343 343 342 340 338 336 333 331 332 333 334 335 337 337 335 331 332 333 330
316 315 315 315 316 315 316 316 317 317 317 319 317 317 319 337 335 337 337 342 346 346 345 343 342 338 334 334 335 340 346 343 342 341 339 336 333 332 332 334 334 335 336 335 334 331 332 333 332
317 316 315 315 315 316 316 317 317 316 315 315 315 316 317 316 321 334 339 338 343 347 346 346 344 341 336 335 335 335 339 341 341 341 340 336 333 332 333 334 334 334 336 336 333 331 333 332 330
317 317 317 317 317 316 319 317 318 318 317 315 315 316 316 316 316 319 326 336 339 343 345 345 345 343 339 337 334 335 336 339 341 341 340 336 333 333 337 337 338 337 336 336 335 332 333 331 328
317 318 317 319 319 319 318 319 319 319 317 315 316 316 316 316 318 319 323 324 331 339 344 345 345 344 343 338 336 336 334 337 340 341 339 335 333 334 337 340 339 339 338 337 335 333 331 330 326
317 317 317 319 320 319 319 320 320 319 317 316 314 315 318 320 319 322 324 324 324 331 342 345 345 344 343 339 338 338 338 336 336 338 337 334 333 334 340 341 340 339 338 337 333 333 331 331 326
317 314 318 318 319 319 320 321 321 320 320 320 318 316 317 316 317 320 322 323 325 323 338 345 346 345 344 341 340 341 341 340 338 335 334 334 335 337 337 341 342 340 339 337 334 334 332 329 324
317 320 318 320 321 320 320 320 319 320 320 320 317 317 317 315 316 319 321 321 323 324 332 341 346 345 344 343 342 344 343 342 341 340 339 339 339 339 339 340 342 341 340 336 334 335 329 327 323
318 319 318 317 318 321 323 322 321 319 319 319 320 320 316 317 317 322 329 328 324 328 334 342 345 345 345 344 343 343 343 342 343 343 342 343 343 342 338 338 338 338 337 337 335 330 326 320 319
318 319 320 319 319 323 323 325 321 321 321 320 321 318 319 323 323 324 334 339 338 337 337 340 342 345 344 344 343 343 343 343 343 343 343 343 343 343 340 339 339 337 335 331 328 327 321 319 317
320 321 321 321 322 323 324 326 324 322 321 322 321 320 323 324 326 329 329 330 339 337 339 340 340 342 343 343 343 342 341 340 339 339 340 341 341 341 340 339 337 335 332 329 326 324 323 318 316
322 321 322 325 327 329 325 331 326 323 324 322 321 322 323 327 327 328 327 326 333 340 340 340 340 340 341 342 342 342 340 335 337 338 338 339 339 340 338 337 334 332 328 326 324 321 319 318 316
325 325 326 326 326 326 326 327 326 325 325 324 320 321 325 326 325 327 326 326 325 337 341 342 341 341 340 340 341 341 339 338 336 334 334 334 333 333 334 334 331 329 326 322 320 318 317 317 317
323 325 325 324 325 330 326 327 328 324 323 327 324 327 325 324 326 325 325 325 324 326 337 340 340 339 339 338 338 338 338 336 333 331 330 329 327 324 325 327 328 325 322 321 317 316 316 316 317
324 325 330 331 331 332 327 328 328 325 322 327 328 326 324 323 325 325 324 323 323 323 328 338 337 337 337 337 336 335 335 333 330 330 328 325 321 318 317 318 317 317 317 317 316 316 315 315 315
325 326 330 334 333 330 326 330 325 323 323 326 326 325 324 323 323 325 325 323 325 324 324 327 332 333 335 335 335 334 334 330 325 323 320 318 317 315 314 315 315 316 315 315 314 314 314 314 315
325 327 325 329 327 329 326 324 325 327 326 325 326 327 326 325 324 324 323 324 325 324 324 324 325 326 325 328 327 327 326 326 325 321 316 316 314 314 313 314 314 314 313 313 313 313 313 312 312
323 324 329 327 332 334 328 326 323 328 327 326 326 327 326 325 324 323 324 325 325 325 325 324 325 324 322 321 321 321 321 320 319 318 315 314 314 312 312 312 312 312 312 311 311 310 310 309 308
326 327 327 327 326 328 326 325 319 328 326 325 324 322 322 319 322 323 322 325 326 326 325 324 323 323 321 320 319 318 317 316 316 314 313 312 312 311 311 310 310 310 309 308 308 307 306 306 305
326 327 326 329 329 324 323 324 324 325 322 317 317 319 318 318 319 320 321 323 325 324 323 323 322 321 320 320 317 315 314 312 311 309 309 309 309 308 309 309 309 308 306 305 304 303 303 303 302
Wind_Speed
8 7 4 2 4 5 3 5 1 2 2 2 2 11 8 3 2 3 1 27 24 38 34 30 28 28 28 27 26 25 24 24 23 22 20 19 20 20 19 19 18 17 17 17 17 16 16 16 17
5 1 2 2 4 4 5 5 6 5 4 1 8 5 6 3 3 5 11 22 31 38 35 31 29 28 28 28 28 26 25 24 23 22 21 19 19 19 18 18 18 18 17 17 17 16 16 15 14
7 1 3 4 3 3 2 4 4 1 4 2 3 6 5 4 3 7 5 24 34 37 35 31 28 28 29 29 29 28 26 25 23 21 21 19 18 18 18 17 16 16 16 16 17 17 16 14 13
5 5 4 4 4 6 4 6 5 4 3 4 5 7 4 3 5 8 21 28 35 35 34 31 28 27 29 30 29 29 27 26 24 22 20 19 18 18 17 17 16 15 15 15 15 15 15 14 13
3 3 4 2 4 5 6 5 5 4 4 2 3 2 4 3 14 17 26 30 34 34 32 30 27 26 28 30 30 29 28 27 25 23 21 20 18 17 16 15 14 14 13 13 13 13 13 12 12
4 3 3 1 4 7 8 5 3 3 2 2 6 5 1 12 19 20 26 29 30 31 30 29 26 24 26 30 31 29 28 27 26 24 22 20 18 17 15 14 13 11 10 10 9 9 9 8 8
4 3 3 3 4 7 5 4 2 3 2 4 3 4 2 3 19 22 26 27 28 27 29 29 27 24 24 28 30 29 27 26 26 25 23 21 19 17 16 14 13 12 9 8 7 6 5 4 4
5 4 2 3 2 5 6 8 3 5 0 2 5 6 5 7 21 21 29 29 28 27 27 31 27 26 26 28 28 28 28 26 25 25 24 22 20 19 17 16 14 13 12 11 9 7 5 4 3
3 3 3 4 3 6 7 9 9 5 2 2 2 7 6 26 22 25 27 26 30 30 30 30 30 28 27 28 27 27 26 26 26 25 24 22 21 20 18 17 16 15 14 12 10 8 6 5 4
4 4 10 7 4 4 4 2 6 6 6 3 4 7 15 25 26 22 20 20 27 33 34 32 33 33 29 29 29 28 27 27 27 27 25 25 23 22 21 19 17 16 14 13 11 10 8 7 5
3 6 5 8 10 5 4 8 5 5 2 4 4 5 8 10 16 18 21 33 39 39 36 36 35 35 35 33 31 30 30 30 30 30 29 27 24 23 21 20 19 18 16 15 14 12 11 9 8
4 5 5 7 6 3 5 4 4 6 8 7 8 8 7 12 11 16 19 23 26 34 39 38 37 37 37 38 36 34 31 33 33 33 31 30 28 26 24 23 22 21 20 18 16 14 12 11 10
5 5 7 9 8 6 7 6 3 12 10 10 11 9 11 10 12 26 32 29 32 32 35 38 38 38 39 40 38 36 35 35 35 34 33 32 30 29 26 25 24 23 21 20 18 16 15 14 9
5 7 8 7 7 7 4 8 3 16 13 8 9 12 12 11 11 15 25 33 32 38 39 41 40 38 37 39 41 40 36 36 36 35 34 33 31 29 26 26 26 25 23 22 20 19 18 17 14
6 7 8 7 3 9 5 9 8 19 9 11 14 10 11 11 12 15 21 21 33 40 40 42 44 40 38 39 40 38 39 37 36 37 35 34 32 31 29 28 29 28 26 23 20 19 17 17 18
5 2 4 3 3 5 9 7 14 11 6 10 9 8 9 8 12 23 23 25 25 32 37 41 40 43 39 39 39 37 35 36 38 38 37 35 34 33 31 31 31 30 29 26 23 22 22 20 21
4 4 5 10 7 5 6 6 6 7 7 9 9 9 8 10 10 19 23 25 28 25 38 39 40 42 42 39 37 35 35 35 35 36 37 36 36 34 36 32 32 33 32 30 26 25 25 26 23
6 5 5 6 5 3 11 8 6 6 3 8 9 10 10 9 14 21 24 21 21 23 35 40 42 39 40 36 33 32 32 33 33 33 34 34 34 36 36 33 25 32 35 33 30 29 29 28 26
3 3 7 7 12 5 12 8 9 7 6 9 11 11 10 12 7 2 7 7 11 19 31 36 37 37 39 36 34 32 31 34 34 36 34 34 35 34 33 36 33 27 35 38 35 34 33 27 27
11 12 16 10 13 7 9 19 7 6 9 10 13 11 13 1 6 7 18 21 14 17 26 32 35 38 38 34 32 27 33 30 30 30 31 31 31 32 31 32 35 28 33 32 33 33 28 24 28
16 16 14 13 6 5 7 18 6 6 5 11 11 5 6 8 9 6 9 18 19 13 20 28 34 38 37 36 35 27 26 22 22 23 25 26 28 31 32 32 31 28 32 32 31 30 27 17 21
16 11 14 8 1 8 3 18 12 6 12 13 7 6 7 8 7 6 7 12 15 12 16 23 28 31 37 36 38 37 33 20 24 29 24 24 24 26 25 24 25 28 29 31 27 21 22 23 21
10 7 9 6 4 1 5 5 2 11 18 21 11 9 7 8 9 8 7 13 12 13 11 14 21 26 31 35 38 37 32 28 21 26 24 22 22 22 23 25 26 28 28 25 23 18 18 22 21
3 4 2 2 3 10 7 7 30 4 6 5 3 11 9 8 7 7 10 11 13 11 12 11 13 15 20 24 26 28 29 26 21 24 25 23 20 19 19 21 24 24 23 21 20 17 17 21 22
6 5 2 3 1 10 9 8 20 14 8 5 10 8 7 8 7 7 7 7 11 13 11 7 7 7 10 13 17 19 20 22 24 27 30 27 23 19 18 20 21 24 23 21 18 19 20 23 25
12 11 6 7 6 4 8 6 6 10 8 6 6 7 6 8 7 6 6 7 8 10 9 8 9 8 7 9 13 16 18 18 20 23 24 24 23 22 20 22 23 23 21 22 22 20 21 21 22
8 14 11 4 3 0 5 5 5 6 9 7 8 7 8 7 6 7 7 14 12 10 8 8 9 8 8 8 10 11 13 15 17 19 19 22 21 23 24 25 25 23 22 22 23 24 25 23 25
19 8 6 4 7 12 5 6 5 5 8 7 7 8 7 5 5 6 7 14 16 14 13 10 9 8 7 8 7 9 11 12 14 16 19 20 21 25 27 24 24 22 22 21 19 20 20 22 22
7 13 6 7 5 5 3 6 7 13 9 8 6 6 4 6 1 7 7 14 17 15 15 14 13 12 12 10 10 11 13 15 16 20 22 23 26 30 28 27 25 21 20 19 18 20 23 20 21
19 18 18 9 6 5 5 5 1 10 8 8 7 7 6 4 2 5 6 6 17 19 18 17 16 15 13 12 11 10 11 12 14 17 19 23 26 27 29 26 23 20 19 19 19 22 20 19 19
Wind_Direction
300 295 294 65 54 66 271 269 292 153 36 268 336 99 130 109 110 160 33 178 175 170 171 172 174 173 169 165 161 158 155 152 147 141 138 134 130 129 127 124 121 118 114 111 111 111 109 108 110
315 311 111 81 83 45 298 268 181 135 167 145 107 109 61 43 76 143 136 183 175 173 173 174 176 177 175 171 167 164 162 158 154 149 144 141 139 135 133 132 130 128 124 122 118 117 113 108 107
324 214 89 97 98 166 223 259 240 184 38 64 80 89 100 110 82 162 207 172 174 173 175 175 177 178 180 177 172 169 167 164 161 157 152 151 148 145 142 139 138 134 132 132 130 128 127 126 126
351 18 25 90 224 268 232 259 224 147 326 46 127 76 67 342 151 172 160 167 172 174 177 177 178 180 181 182 178 175 171 168 167 165 163 158 158 155 153 147 146 144 143 141 140 139 137 137 137
40 67 47 37 267 259 280 247 183 144 171 76 92 82 107 53 141 160 163 169 174 177 180 178 181 182 184 184 183 180 176 172 172 171 171 167 166 164 160 156 155 154 152 152 151 150 148 146 145
8 93 42 247 289 288 299 233 130 59 344 175 74 120 143 149 146 166 169 170 177 177 182 181 182 185 187 184 185 184 181 178 176 177 177 175 173 170 168 164 162 162 162 160 162 160 157 154 153
124 76 216 263 265 309 299 283 48 66 13 7 105 71 148 173 161 166 171 170 173 177 183 186 183 185 189 187 187 187 186 185 182 182 181 181 179 178 177 175 172 172 172 172 174 175 173 174 182
117 102 268 254 150 270 321 335 136 117 218 246 135 160 197 214 168 162 173 173 173 175 183 186 187 186 186 189 191 191 191 191 189 188 188 185 185 186 184 183 185 181 182 184 188 194 197 209 218
116 81 211 239 194 284 336 10 324 330 38 309 245 158 205 167 159 149 155 164 172 177 181 186 190 191 188 190 192 195 197 196 195 193 192 189 189 190 191 192 193 192 191 191 195 203 211 222 231
132 163 211 205 195 254 307 299 302 342 332 293 340 39 129 158 164 154 162 165 172 183 186 189 191 194 193 193 195 196 198 199 198 197 195 197 195 195 197 199 202 202 201 200 205 213 210 211 204
218 223 218 257 251 210 250 296 194 248 198 190 246 278 175 169 189 185 176 177 186 191 189 194 195 197 196 196 194 197 201 201 202 202 199 200 198 200 202 202 204 204 205 207 213 216 214 205 188
298 271 239 270 278 305 241 248 288 251 250 227 238 230 166 193 196 202 199 187 185 189 195 196 198 200 199 200 196 197 197 202 203 204 202 201 200 202 203 206 208 210 212 217 219 221 215 207 193
225 277 298 282 295 262 258 261 235 272 245 264 267 274 261 220 204 211 208 196 191 192 197 202 200 201 203 202 199 199 201 203 205 206 205 206 204 205 205 209 213 218 219 222 223 221 215 204 197
314 298 280 284 278 254 247 290 106 280 276 266 269 264 264 245 231 203 200 210 191 201 203 205 205 203 205 204 202 201 202 205 206 208 209 209 210 212 209 213 214 216 220 224 226 220 212 201 185
303 307 313 291 272 278 104 306 256 261 317 272 267 245 259 242 213 203 206 211 197 201 205 207 207 204 203 204 205 204 204 206 208 212 213 213 213 215 214 218 220 223 224 226 224 216 207 200 189
321 275 298 234 325 282 132 257 272 290 288 293 294 287 252 208 199 210 218 224 216 199 196 205 198 199 201 199 204 205 208 210 211 215 216 215 216 217 221 220 226 226 225 222 214 207 203 208 196
272 253 230 308 202 235 165 240 257 326 332 317 304 283 263 275 266 245 240 232 224 209 196 192 194 197 198 198 203 204 210 212 212 215 221 219 219 218 219 229 230 228 224 219 208 208 212 195 194
203 213 232 232 258 310 296 237 257 277 318 278 282 288 281 263 261 268 268 265 244 222 196 194 193 195 191 192 198 203 209 212 215 217 220 220 219 220 220 223 231 228 224 217 208 202 198 197 190
247 245 255 256 271 300 283 280 278 274 271 278 279 282 267 257 280 330 78 86 162 175 179 181 183 189 185 187 189 195 201 207 213 216 219 221 220 220 224 225 231 227 222 214 205 192 187 187 182
244 259 264 278 263 256 289 287 271 289 277 280 283 291 285 107 84 76 71 71 85 153 179 178 183 186 187 184 187 187 195 196 203 209 213 216 217 221 226 229 229 226 216 205 196 192 183 189 184
232 228 248 246 281 266 301 279 237 249 260 277 280 259 130 145 118 88 67 64 75 126 174 183 189 189 184 189 189 189 190 190 198 206 215 217 221 224 227 228 220 207 206 205 202 201 198 179 176
243 219 243 261 312 272 142 294 269 219 271 277 193 187 153 137 115 113 99 74 68 84 166 189 194 189 190 190 192 193 189 182 203 202 202 202 204 211 213 214 211 205 202 203 203 205 192 182 180
233 208 221 199 221 262 171 279 187 315 294 283 190 176 185 158 139 124 104 92 71 68 102 168 189 192 197 197 199 197 198 201 201 199 194 193 192 194 197 199 199 200 201 198 193 182 180 179 169
242 193 180 84 123 262 176 197 284 208 222 291 125 162 173 151 131 103 104 97 82 81 88 121 166 181 196 201 206 210 209 207 199 197 198 199 197 194 193 197 201 200 191 186 173 167 178 185 183
190 127 267 301 191 257 181 224 253 274 244 208 166 162 169 134 140 140 139 120 109 97 104 128 124 153 191 208 215 220 225 222 217 208 206 203 201 198 190 186 175 168 165 162 165 169 170 181 181
212 190 180 209 213 236 198 239 249 258 179 152 168 155 151 146 152 167 150 139 131 116 120 140 171 182 192 205 220 226 231 228 224 220 214 209 203 197 183 171 171 169 171 166 161 161 163 172 174
206 214 196 271 117 321 229 275 326 18 92 144 161 155 173 164 158 167 153 170 161 153 152 155 166 185 202 221 227 231 232 232 227 227 224 211 205 189 182 181 180 174 174 175 175 175 181 182 178
213 158 170 193 195 231 242 224 213 166 151 154 145 172 202 205 202 181 177 177 180 172 156 160 175 186 198 205 216 226 223 223 223 220 213 207 200 190 186 190 183 179 177 184 185 186 181 175 162
189 214 199 181 170 166 176 248 198 184 173 166 177 189 149 71 185 216 218 191 180 177 174 173 174 181 187 198 206 213 215 214 213 211 206 201 193 192 188 185 182 182 187 194 197 196 188 182 176
201 206 195 199 207 185 160 267 284 146 127 128 139 129 122 116 172 213 223 143 177 179 181 182 186 184 192 199 203 207 214 215 212 209 206 197 189 188 184 185 189 193 192 189 190 188 182 177 179